Regional Weather Roundup
Issued by NWS

Home | Current Version | Previous Version | Text Only | Print | Product List | Glossary On
Versions: 1 2 3 4 5 6 7 8 9 10 11 12 13 14 15 16 17 18 19 20 21 22 23 24 25 26 27 28 29 30 31 32 33 34 35 36 37 38 39 40 41 42 43 44 45 46 47 48 49 50
000
ASUS42 KFFC 142310
RWRGA
WEATHER ROUNDUP FOR GEORGIA
NATIONAL WEATHER SERVICE PEACHTREE CITY GA
600 PM EST THU DEC 14 2017

NOTE: "FAIR" INDICATES FEW OR NO CLOUDS BELOW 12,000 FEET WITH NO
SIGNIFICANT WEATHER AND/OR OBSTRUCTIONS TO VISIBILITY.

* = USE WITH CAUTION. THE STATIONS MARKED WITH AN ASTERISK MAY NOT
REPORT WEATHER SUCH AS PRECIPITATION, FOG, OR THUNDER AND ARE NOT
QUALITY CONTROLLED BY NWS.

THE REMARK "TC" DENOTES TEMPERATURE READING IN DEGREES CELSIUS.

GAZ001>058-150000-
NORTH GEORGIA

CITY           SKY/WX    TMP DP  RH WIND       PRES   REMARKS
ATLANTA        PTCLDY    51  36  56 SW6       29.93S
ATHENS         CLEAR     49  32  52 SW3       29.93R
CHAMBLEE       CLEAR     49  31  49 CALM      29.93R
PEACHTREE CITY CLOUDY    48  36  63 CALM      29.95S
ROME           CLEAR     51  32  48 W3        29.94R
WEST ATLANTA   CLEAR     53  34  48 S3        29.93S
GAINESVILLE    CLEAR     48  29  47 W6        29.93S
CARTERSVILLE   CLEAR     47  33  58 CALM      29.95R


CITY           SKY/WX    TMP DP  RH WIND       PRES   REMARKS
DALTON*        CLEAR     45  32  61 CALM      29.95S
LAWRENCEVILLE* CLEAR     49  31  49 CALM      29.93R
MARIETTA       PTCLDY    51  30  45 NW5       29.92S
KENNESAW*      CLEAR     50  31  48 W5        29.94R
CANTON*        CLEAR     50  34  53 CALM      29.94R
$$

GAZ059>098-102>109-150000-
CENTRAL GEORGIA

CITY           SKY/WX    TMP DP  RH WIND       PRES   REMARKS
AUGUSTA-BUSH   CLOUDY    50  36  58 CALM      29.95R
AUGUSTA-DANIEL CLOUDY    54  35  48 VRB3      29.95R
COLUMBUS       CLOUDY    55  37  50 NW5       29.98R
MACON          CLOUDY    53  36  52 SW3       29.96S
ROBINS AFB     MOCLDY    52  37  57 CALM      29.96R


CITY           SKY/WX    TMP DP  RH WIND       PRES   REMARKS
LAGRANGE*      CLOUDY    46  40  79 CALM      29.96S
SYLVANIA*      MOCLDY    53  44  73 CALM      29.96R
MILLEDGEVILLE* CLOUDY    46  41  81 CALM      29.95S
$$

GAZ099>101-110>166-150000-
SOUTH GEORGIA

CITY           SKY/WX    TMP DP  RH WIND       PRES   REMARKS
SAVANNAH       CLOUDY    57  36  45 SW6       29.97R
VALDOSTA       PTCLDY    51  43  74 S3        30.00R
ALMA           PTCLDY    51  43  74 CALM      29.98R
ST SIMONS      CLOUDY    57  41  55 SW5       29.98S
FT STEWART     CLOUDY    56  38  51 CALM      29.96R
ALBANY         PTCLDY    56  39  53 CALM      29.99R
MOODY AFB      PTCLDY    53  39  59 S5        29.98R
BRUNSWICK      CLOUDY    59  36  41 S5        29.98S


CITY           SKY/WX    TMP DP  RH WIND       PRES   REMARKS
BAINBRIDGE*    MOCLDY    54  50  87 CALM      29.99R
MOULTRIE*      PTCLDY    54  43  66 CALM      30.00R
VIDALIA*       MOCLDY    55  39  54 SW3       29.97R
WAYCROSS*      PTCLDY    52  35  51 SW5       29.99R
DOUGLAS*       PTCLDY    52  37  58 CALM      30.00R
$$



USA.gov is the U.S. government's official web portal to all federal, state and local government web resources and services.